[[{"header":{"parameterUnit":"m.s-1","parameterCategory":1,"la1":30.2991,"la2":30.254,"lo1":-89.0895,"lo2":-89.0444,"dy":0.0017,"dx":0.0017,"nx":28,"ny":28,"refTime":"2023-11-06T03:00:00:Z","depth":0,"parameterNumber":2,"parameterNumberName":"U-component_of_WINDS"},"data":[0,0,0,0,0,0,0,0,0,0,0,0,0,0,0,0,0,0,0,0,0,0,0,0,0,0,0,0,0,0,0,0,0,0,0,0,0,0,0,0,0,0,0,0,0,0,0,0,0,0,0,0,0,0,0,0,0,0,0.7094,0.7095,0,0.7108,0.7108,0.7108,0.7142,0.7143,0.7143,0.7144,0.7158,0.7157,0.7157,0,0,0,0,0,0,0,0,0,0,0,0,0,0.7099,0.7099,0.7094,0.7095,0.7095,0.7108,0.7108,0.7108,0.7142,0.7143,0.7143,0.7144,0.7158,0.7157,0.7157,0,0,0,0,0,0,0,0,0,0,0,0,0,0.7103,0.7099,0.7094,0.7113,0.7115,0.7108,0.7108,0.7109,0.7142,0.7143,0.7144,0.7145,0.7158,0.7157,0.7157,0.7133,0,0,0.7156,0.7155,0,0,0,0,0,0,0,0,0.7103,0.7103,0.711,0.7112,0.7114,0.7124,0.7115,0.7117,0.7141,0.7131,0.7144,0.7145,0.7146,0.7146,0.7147,0.7134,0.7134,0.7156,0.7155,0.7155,0.7155,0,0,0,0,0,0,0,0.7103,0.7103,0.71,0.711,0.7112,0.7121,0.7123,0.7115,0.7132,0.7132,0.7135,0.7136,0.7147,0.7147,0.7147,0.7134,0.7156,0.7155,0.7155,0.7155,0.7106,0.7105,0,0,0,0,0,0,0.71,0.7102,0.7099,0.71,0.7111,0.712,0.7122,0.712,0.7133,0.7136,0.7135,0.7138,0.7147,0.7148,0.7148,0.7123,0.7155,0.7155,0.7154,0.7107,0.7106,0.7105,0,0,0,0,0,0,0.7099,0.7099,0.7099,0.7102,0.7103,0.7119,0.7116,0.712,0.712,0.7135,0.7138,0.7132,0.7148,0.7148,0.7137,0.7124,0.7154,0.7154,0.7109,0.7107,0.7106,0.7071,0,0,0,0,0,0,0.7099,0.7099,0.7089,0.7101,0.7102,0.7087,0.7115,0.7119,0.7119,0.7122,0.7133,0.7135,0.7149,0.7138,0.7137,0.7124,0.7154,0.711,0.7108,0.7106,0.7074,0.7069,0.7065,0,0,0,0,0,0.7099,0.7078,0.7088,0.7088,0.7091,0.7087,0.7087,0.7103,0.7117,0.7109,0.7119,0.7135,0.7125,0.7136,0.7136,0.7122,0.7111,0.7108,0.7106,0.7076,0.707,0.7065,0,0,0,0,0,0,0.7063,0.708,0.7092,0.7073,0.7079,0.7092,0.7081,0.7096,0.7097,0.71,0.712,0.7122,0.7108,0.7114,0.7126,0.7101,0.7121,0.7118,0.7098,0.7092,0.7088,0.7087,0.7153,0,0,0,0,0,0.7053,0.7048,0.7063,0.7046,0.7048,0.7064,0.7063,0.7075,0.7081,0.7083,0.7092,0.7098,0.7096,0.7095,0.7094,0.7075,0.7079,0.7066,0.7061,0.7057,0.7055,0.7048,0.7043,0.7098,0.7098,0.7098,0,0,0.7032,0.704,0.7036,0.7039,0.7044,0.7039,0.7065,0.7059,0.7056,0.7082,0.7073,0.708,0.7087,0.7073,0.7067,0.7077,0.7041,0.7054,0.7051,0.7051,0.7045,0.704,0.7035,0.7096,0.7096,0.7097,0,0,0.6991,0.6996,0.6984,0.6989,0.6998,0.7009,0.7006,0.7018,0.7024,0.7015,0.7036,0.7033,0.7029,0.7035,0.7037,0.7002,0.7017,0.7001,0.6977,0.697,0.6966,0.6962,0.6952,0.6947,0.6998,0.6998,0.6998,0,0.6964,0.6957,0.6975,0.6968,0.697,0.6995,0.6983,0.6987,0.6994,0.6996,0.7007,0.7005,0.7011,0.7,0.6992,0.6992,0.6991,0.7,0.6965,0.6962,0.6958,0.6949,0.6944,0.6996,0.6997,0.6997,0.6997,0,0.6924,0.692,0.6909,0.6916,0.6917,0.6907,0.6925,0.6923,0.6937,0.6947,0.6939,0.6948,0.6951,0.6949,0.6961,0.6941,0.6947,0.6961,0.6982,0.6951,0.6942,0.6938,0.6994,0.6994,0.6995,0.6995,0,0,0.6859,0.688,0.6875,0.688,0.6893,0.689,0.6882,0.6886,0.6885,0.689,0.6885,0.6883,0.6897,0.69,0.6913,0.6907,0.6881,0.6922,0.6923,0.6916,0.6862,0.6852,0.6847,0.6892,0.6891,0.6891,0.6862,0,0.6823,0.6811,0.6829,0.6814,0.6811,0.6836,0.683,0.6837,0.6848,0.6848,0.6859,0.6858,0.6876,0.6878,0.6873,0.6885,0.6871,0.6888,0.6889,0.6889,0.6887,0.6842,0.683,0.6803,0.6858,0.6858,0.6857,0,0.6778,0.6782,0.6767,0.6783,0.6782,0.6776,0.6783,0.6782,0.6792,0.68,0.6804,0.682,0.6816,0.6835,0.683,0.6841,0.6843,0.685,0.6849,0.685,0.6871,0.6843,0.6794,0.679,0.6852,0.6852,0.6852,0,0.6734,0.6736,0.6728,0.6731,0.6749,0.6745,0.6752,0.6763,0.6765,0.6771,0.6773,0.6777,0.678,0.6784,0.6801,0.6814,0.6795,0.6815,0.6803,0.6803,0.6798,0.6798,0.675,0.6798,0.6798,0.6798,0.6798,0,0.6692,0.6682,0.6709,0.6704,0.6695,0.6716,0.6706,0.6716,0.6726,0.6724,0.6746,0.6744,0.6767,0.6768,0.6782,0.6777,0.6778,0.6786,0.679,0.6784,0.6783,0.6786,0.6789,0.6797,0.6797,0.6797,0.6797,0,0.6642,0.6659,0.6652,0.6671,0.6675,0.6667,0.6684,0.668,0.6693,0.6691,0.6692,0.6712,0.6715,0.6733,0.6739,0.6749,0.674,0.6747,0.6736,0.6739,0.6726,0.6728,0.6678,0.6674,0.6723,0.6723,0.6722,0,0.6614,0.6607,0.6625,0.6626,0.6633,0.6633,0.6636,0.6657,0.6659,0.6672,0.6668,0.6672,0.6677,0.6681,0.6696,0.6702,0.6711,0.6693,0.6712,0.6707,0.6713,0.6713,0.6714,0.6689,0.6689,0.6688,0.6688,0,0.6563,0.6573,0.6576,0.6583,0.6586,0.6592,0.66,0.6599,0.6623,0.6624,0.6628,0.6632,0.664,0.6645,0.6654,0.6663,0.668,0.6682,0.668,0.6674,0.6669,0.6674,0.6727,0.6683,0.6683,0.6684,0.6684,0.6684,0.6525,0.6521,0.6534,0.6537,0.6546,0.6553,0.6552,0.6565,0.6569,0.6577,0.659,0.6592,0.6605,0.6619,0.6627,0.663,0.6639,0.6635,0.6634,0.6634,0.6632,0.6668,0.6631,0.6631,0.6631,0.6631,0.6632,0,0.6477,0.6487,0.649,0.6501,0.6504,0.652,0.653,0.6532,0.6534,0.6545,0.655,0.6555,0.6561,0.6578,0.6586,0.6585,0.6594,0.6587,0.6588,0.659,0.6622,0.6624,0.658,0.658,0.658,0.658,0.658,0.658,0.6452,0.6448,0.6459,0.646,0.647,0.6473,0.6478,0.6486,0.6494,0.65,0.6505,0.6516,0.653,0.654,0.6546,0.6551,0.6554,0.6545,0.6553,0.6582,0.6587,0.6592,0.6594,0.6545,0.6545,0.6521,0.652,0.652]},{"header":{"parameterUnit":"m.s-1","parameterCategory":1,"la1":30.2991,"la2":30.254,"lo1":-89.0895,"lo2":-89.0444,"dy":0.0017,"dx":0.0017,"nx":28,"ny":28,"refTime":"2023-11-06T03:00:00:Z","depth":0,"parameterNumber":3,"parameterNumberName":"V-component_of_WINDS"},"data":[0,0,0,0,0,0,0,0,0,0,0,0,0,0,0,0,0,0,0,0,0,0,0,0,0,0,0,0,0,0,0,0,0,0,0,0,0,0,0,0,0,0,0,0,0,0,0,0,0,0,0,0,0,0,0,0,0,0,1.1303,1.1302,0,1.1229,1.1228,1.1227,1.1219,1.1219,1.122,1.1221,1.1144,1.1141,1.1139,0,0,0,0,0,0,0,0,0,0,0,0,0,1.1436,1.1433,1.1303,1.1302,1.1301,1.1229,1.1228,1.1227,1.1218,1.1219,1.122,1.1221,1.1145,1.1142,1.1138,0,0,0,0,0,0,0,0,0,0,0,0,0,1.1372,1.1433,1.1303,1.1288,1.1286,1.1229,1.1228,1.1227,1.1218,1.1219,1.122,1.1221,1.1146,1.1142,1.1138,1.1091,0,0,1.1126,1.1124,0,0,0,0,0,0,0,0,1.1375,1.1367,1.1291,1.1289,1.1287,1.1234,1.1247,1.1181,1.1218,1.1244,1.1221,1.1222,1.1173,1.1167,1.1151,1.1087,1.1084,1.1125,1.1123,1.1121,1.112,0,0,0,0,0,0,0,1.138,1.137,1.1274,1.129,1.1287,1.1285,1.1277,1.1234,1.1203,1.1242,1.1241,1.1232,1.1172,1.1155,1.1149,1.1083,1.1125,1.1122,1.1119,1.1118,1.0979,1.0978,0,0,0,0,0,0,1.1387,1.1374,1.1276,1.1271,1.1335,1.1282,1.1273,1.125,1.1204,1.1198,1.1232,1.1232,1.1161,1.1153,1.1146,1.1088,1.1121,1.1117,1.1115,1.098,1.0978,1.0977,0,0,0,0,0,0,1.139,1.1378,1.1279,1.1322,1.1309,1.1278,1.1252,1.1248,1.123,1.1196,1.119,1.1219,1.1162,1.1152,1.1105,1.1085,1.1115,1.1112,1.0981,1.0979,1.0978,1.0972,0,0,0,0,0,0,1.1394,1.1379,1.1361,1.1322,1.1307,1.1239,1.1251,1.1246,1.1223,1.1224,1.1183,1.1177,1.1162,1.1111,1.1101,1.108,1.1108,1.0983,1.0981,1.0978,1.0974,1.097,1.0967,0,0,0,0,0,1.1399,1.1362,1.136,1.1348,1.1284,1.1238,1.1229,1.1212,1.1222,1.1203,1.1182,1.1179,1.109,1.1106,1.1095,1.1073,1.0984,1.0981,1.0979,1.0975,1.0971,1.0967,0,0,0,0,0,0,1.1399,1.1356,1.1354,1.1304,1.1275,1.1237,1.1212,1.1208,1.1175,1.1177,1.1157,1.1148,1.1102,1.1083,1.1102,1.1025,1.1038,1.1033,1.1039,1.1035,1.1032,1.1037,1.1105,0,0,0,0,0,1.1393,1.136,1.1325,1.1284,1.1269,1.1244,1.1223,1.1213,1.1181,1.1169,1.1144,1.1113,1.1078,1.1056,1.1022,1.0972,1.0963,1.0951,1.0948,1.0945,1.094,1.0913,1.0908,1.0968,1.0968,1.0968,0,0,1.138,1.1353,1.1333,1.1283,1.1259,1.1225,1.1233,1.1196,1.1171,1.1163,1.1117,1.1098,1.1063,1.1015,1.0992,1.0997,1.0922,1.0942,1.094,1.0936,1.091,1.0904,1.0899,1.0966,1.0966,1.0967,0,0,1.134,1.1317,1.128,1.1257,1.1221,1.1204,1.1196,1.1159,1.1146,1.11,1.1094,1.1063,1.1004,1.0979,1.0959,1.0912,1.0908,1.0902,1.0884,1.0857,1.0853,1.0848,1.0832,1.0826,1.0897,1.0897,1.0897,0,1.1329,1.1278,1.1262,1.1226,1.1204,1.1197,1.116,1.1137,1.1092,1.1077,1.1084,1.101,1.0986,1.0932,1.0921,1.0905,1.0895,1.0905,1.0855,1.085,1.0846,1.083,1.0824,1.0897,1.0897,1.0897,1.0897,0,1.1266,1.123,1.1205,1.1163,1.1138,1.1102,1.1081,1.1058,1.105,1.1033,1.0987,1.0959,1.0919,1.0906,1.0898,1.0851,1.0856,1.0859,1.0871,1.084,1.0824,1.0818,1.0896,1.0896,1.0896,1.0896,0,0,1.1221,1.1172,1.1163,1.1144,1.1105,1.1078,1.1042,1.1004,1.0985,1.0955,1.0924,1.0875,1.0878,1.0855,1.0844,1.0821,1.0786,1.0827,1.0826,1.0821,1.0734,1.0731,1.0724,1.0784,1.0783,1.0782,1.0737,0,1.1176,1.1111,1.1097,1.1042,1.1009,1.1003,1.0972,1.0944,1.0928,1.0898,1.088,1.0846,1.0852,1.0839,1.0816,1.0795,1.0769,1.0799,1.0755,1.0754,1.0763,1.0716,1.0713,1.0671,1.0731,1.073,1.0729,0,1.1114,1.1083,1.1025,1.0992,1.0978,1.095,1.0914,1.0886,1.0856,1.0846,1.0821,1.0813,1.0776,1.0791,1.0739,1.076,1.0742,1.073,1.0728,1.0722,1.0739,1.0709,1.0657,1.0651,1.0719,1.072,1.0721,0,1.1087,1.1031,1.0989,1.0974,1.0934,1.0914,1.0897,1.0868,1.0847,1.0816,1.0802,1.0768,1.0749,1.0722,1.0706,1.0718,1.0656,1.0669,1.0646,1.0646,1.0632,1.0633,1.0576,1.0622,1.0622,1.0622,1.0622,0,1.1038,1.1002,1.0977,1.0951,1.0911,1.0896,1.0857,1.0839,1.0814,1.0785,1.0778,1.075,1.0731,1.0701,1.0688,1.0647,1.0639,1.0629,1.0626,1.0629,1.0631,1.0616,1.0619,1.062,1.062,1.0621,1.0621,0,1.1,1.0982,1.0936,1.0903,1.0894,1.0866,1.0838,1.0812,1.0797,1.076,1.0751,1.0726,1.0691,1.0672,1.0628,1.0619,1.0574,1.0572,1.0584,1.0582,1.056,1.0563,1.0492,1.0482,1.0535,1.0534,1.0534,0,1.0969,1.0941,1.0906,1.0886,1.0869,1.0837,1.0816,1.08,1.0778,1.0743,1.0722,1.0687,1.0657,1.0601,1.058,1.0546,1.0544,1.0521,1.0538,1.0543,1.0543,1.0544,1.0542,1.0518,1.0517,1.0517,1.0517,0,1.0916,1.0909,1.0878,1.0845,1.082,1.0794,1.0767,1.0751,1.0731,1.0707,1.0672,1.0649,1.0605,1.057,1.0535,1.0517,1.0513,1.0512,1.0505,1.0507,1.0515,1.051,1.0575,1.0513,1.0513,1.0514,1.0514,1.0514,1.088,1.0856,1.0827,1.0794,1.0773,1.0749,1.0724,1.0706,1.0676,1.0639,1.0632,1.0595,1.0567,1.052,1.0501,1.0472,1.0476,1.0466,1.0463,1.0461,1.046,1.0521,1.0465,1.0466,1.0466,1.0466,1.0466,0,1.0826,1.0808,1.0778,1.0742,1.0716,1.0716,1.0688,1.0666,1.0633,1.0608,1.058,1.0539,1.0506,1.0483,1.0449,1.043,1.0427,1.0421,1.0422,1.0418,1.0458,1.0467,1.0424,1.0424,1.0424,1.0424,1.0424,1.0424,1.0795,1.0754,1.0744,1.0693,1.0676,1.0639,1.0623,1.0601,1.0581,1.0536,1.0509,1.0494,1.047,1.0434,1.0404,1.0398,1.0386,1.038,1.0374,1.0411,1.0415,1.0419,1.0428,1.0378,1.0378,1.0337,1.0336,1.0336]}]]